Date,TemperatureHighF,TemperatureAvgF,TemperatureLowF,DewpointHighF,DewpointAvgF,DewpointLowF,HumidityHigh,HumidityAvg,HumidityLow,PressureMaxIn,PressureMinIn,WindSpeedMaxMPH,WindSpeedAvgMPH,GustSpeedMaxMPH,PrecipitationSumIn
2013-5-1,90,83,76,73,70,69,80,67,55,29.92,29.78,1,0,3,0.00
2013-5-2,76,58,50,70,51,38,97,79,62,30.37,29.83,10,6,18,0.55
2013-5-3,69,56,46,40,35,31,74,49,26,30.39,30.12,7,3,12,0.00
2013-5-4,84,62,44,46,40,33,80,49,16,30.13,29.91,3,1,6,0.00
2013-5-5,82,65,52,50,45,40,78,52,27,30.16,30.00,4,1,7,0.00
2013-5-6,78,64,50,57,51,46,90,66,45,30.17,30.01,2,0,3,0.00
2013-5-7,88,69,52,62,56,50,98,67,32,30.11,29.93,2,1,6,0.00
2013-5-8,86,73,63,69,65,60,93,77,52,30.02,29.87,2,1,4,0.00
2013-5-9,81,74,63,74,69,60,95,86,78,29.99,29.82,8,1,20,0.03
2013-5-10,87,71,61,71,65,60,99,83,54,30.02,29.83,10,1,25,0.27
2013-5-11,82,72,64,65,61,55,93,71,48,30.16,30.00,5,2,8,0.00
2013-5-12,83,70,57,59,54,50,83,59,38,30.25,30.11,3,1,4,0.00
2013-5-13,87,71,53,62,56,48,88,60,34,30.28,30.15,2,0,4,0.00
2013-5-14,88,73,59,69,64,57,95,74,51,30.23,30.00,3,1,6,0.00
2013-5-15,90,77,70,74,71,68,96,83,57,30.10,29.82,4,1,8,0.00
2013-5-16,90,78,73,75,71,70,91,82,62,29.86,29.78,2,1,4,0.00
2013-5-17,98,87,75,78,74,70,86,68,47,29.89,29.77,2,1,6,0.00
2013-5-18,96,82,72,74,71,66,95,71,46,29.91,29.80,3,1,10,0.00
2013-5-19,94,82,73,75,72,67,91,73,53,29.85,29.70,3,1,7,0.00
2013-5-20,95,82,72,75,72,69,96,76,51,29.84,29.68,3,1,6,0.00
2013-5-21,92,81,73,76,73,64,95,77,60,29.85,29.68,4,1,5,0.00
2013-5-22,94,79,63,77,67,58,85,67,55,29.92,29.78,3,1,5,0.00
2013-5-23,95,82,75,76,73,72,92,76,52,30.01,29.83,2,1,5,0.00
2013-5-24,79,74,69,74,71,67,99,93,77,30.10,29.99,3,0,7,0.73
2013-5-25,83,73,69,74,71,68,100,93,70,30.16,30.01,3,1,4,2.27
2013-5-26,86,76,71,77,73,69,98,89,73,30.09,29.97,2,0,4,0.18
2013-5-27,90,78,70,77,73,69,97,83,61,30.04,29.84,2,1,6,0.00
2013-5-28,90,80,73,76,73,71,92,80,61,29.92,29.75,3,2,7,0.00
2013-5-29,86,78,74,76,73,71,94,84,70,29.89,29.70,3,2,5,0.00
2013-5-30,91,81,75,77,74,72,93,81,61,29.84,29.75,2,1,5,0.00
2013-5-31,95,83,75,79,76,73,95,80,57,29.88,29.74,2,1,6,0.00